Location: ?????????
(44.2517°N, 135.2292°E)
Time: 13:20:46
(UTC+00:00)

USA 281 - Pass Details

Date: 19 May 2025
Orbit: 1078 x 1081 km, 106.0° (Epoch: 28 April)

Event Time Altitude Azimuth Distance (km) Brightness Sun altitude
Rises 16:40:09 0° 28° (NNE) 3,885 7.7 -21.5°
Reaches altitude 10° 16:42:48 10° 34° (NE) 2,926 6.6 -21.3°
Maximum altitude 16:49:07 48° 108° (ESE) 1,374 3.8 -20.8°
Enters shadow 16:52:44 25° 170° (S) 2,016 4.2 -20.5°
